Location: Melbourne
(37.8170°S, 144.9670°E)
Time: 08:55:31
(UTC+11:00)

Vanguard 1 Rocket - Visible Passes

Search period start: 19 October 2017 00:00
Search period end: 29 October 2017 00:00
Orbit: 655 x 4222 km, 34.3° (Epoch: 18 October)

Date Brightness Start Highest point End Pass type
(mag) Time Alt. Az. Time Alt. Az. Time Alt. Az.
19 Oct 10.2 01:27:05 10° W 01:52:54 65° NNW 02:12:12 10° NE visible
19 Oct 10.4 04:02:21 10° W 04:21:38 30° NW 04:34:35 10° N visible
19 Oct 10.4 21:42:59 10° WNW 22:03:58 80° N 22:28:54 13° E visible
20 Oct 10.3 00:12:35 10° W 00:37:58 74° NNW 01:00:15 10° ENE visible
20 Oct 10.5 02:45:29 10° WSW 03:17:18 33° N 03:25:22 10° NNE visible
20 Oct 10.9 05:34:50 12° WNW 05:34:50 12° WNW 05:39:32 10° NW visible
20 Oct 10.4 20:31:01 10° WNW 20:48:55 73° NNE 21:15:21 10° E visible
20 Oct 10.4 22:58:55 10° W 23:22:24 80° N 23:37:20 36° ENE visible
21 Oct 10.3 01:30:02 10° WSW 02:12:18 17° NE 02:14:47 10° NE visible
21 Oct 10.7 04:06:16 10° W 04:29:47 20° NNW 04:35:50 10° N visible
21 Oct 10.4 21:46:05 10° W 22:06:45 81° N 22:28:54 19° E visible
22 Oct 10.3 00:15:35 10° W 00:40:31 70° NNW 00:46:04 60° NNE visible
22 Oct 10.9 02:48:42 10° WSW 03:24:23 17° N 03:27:20 10° NNE visible
22 Oct 10.4 20:34:04 10° WNW 20:51:38 77° NNE 21:18:12 10° E visible
22 Oct 10.4 23:02:01 10° W 23:25:07 77° NNW 23:37:48 43° ENE visible
23 Oct 10.5 01:33:02 10° WSW 02:18:44 - NE 01:54:58 51° NW visible
23 Oct 11.0 04:11:01 10° W 04:36:10 10° NNW 04:36:15 10° NNW visible
23 Oct 10.4 21:49:14 10° W 22:09:34 81° N 22:29:37 24° ENE visible
24 Oct 10.3 00:18:36 10° W 00:42:57 64° NNW 00:46:48 60° N visible
24 Oct 11.1 02:52:13 10° W 03:30:17 - N 03:04:00 26° WNW visible
24 Oct 10.3 20:37:13 10° WNW 20:54:27 80° N 21:21:03 10° E visible
24 Oct 10.4 23:05:07 10° W 23:27:46 74° NNW 23:38:42 47° NE visible
25 Oct 10.7 01:36:11 10° WSW 01:55:54 44° WNW 01:55:54 44° WNW visible
25 Oct11.304:41:37NNW04:41:37NNW04:13:05Wvisible
25 Oct 10.4 21:52:24 10° W 22:12:23 79° N 22:30:39 28° ENE visible
26 Oct 10.4 00:21:41 10° W 00:45:16 58° NNW 00:47:52 57° NNW visible
26 Oct 11.3 02:56:13 10° W 03:05:03 20° WNW 03:05:03 20° WNW visible
26 Oct 10.3 20:40:25 10° W 20:57:20 80° N 21:22:40 12° E visible
26 Oct 10.4 23:08:14 10° W 23:30:20 69° NNW 23:39:52 49° NE visible
27 Oct 10.9 01:39:32 10° W 01:57:05 37° WNW 01:57:05 37° WNW visible
27 Oct 10.4 21:55:37 10° W 22:15:09 76° NNW 22:31:56 32° ENE visible
28 Oct 10.5 00:24:50 10° WSW 00:47:30 51° NW 00:49:09 51° NNW visible
28 Oct 11.5 03:01:02 10° W 03:06:22 15° W 03:06:22 15° W visible
28 Oct 10.3 20:43:39 10° W 21:00:14 80° N 21:24:02 15° ENE visible
